Time,TemperatureF,DewpointF,PressureIn,WindDirection,WindDirectionDegrees,WindSpeedMPH,WindSpeedGustMPH,Humidity,HourlyPrecipIn,Conditions,Clouds,dailyrainin,SoftwareType,DateUTC
2013-01-07 00:02:00,11.0,-99.9,-100.00,WSW,245,15.0,18.0,-999,-99.99,,,-99.99,,2013-01-07 07:02:00,
2013-01-07 00:12:00,11.0,-99.9,-100.00,WSW,245,15.0,18.0,-999,-99.99,,,-99.99,,2013-01-07 07:12:00,
2013-01-07 00:23:00,11.0,-99.9,-100.00,WSW,257,15.0,19.0,-999,-99.99,,,-99.99,,2013-01-07 07:23:00,
2013-01-07 00:33:00,11.0,-99.9,-100.00,WSW,257,15.0,19.0,-999,-99.99,,,-99.99,,2013-01-07 07:33:00,
2013-01-07 00:43:00,11.0,-99.9,-100.00,WSW,257,15.0,19.0,-999,-99.99,,,-99.99,,2013-01-07 07:43:00,
2013-01-07 00:53:00,11.0,-99.9,-100.00,WSW,255,16.0,19.0,-999,-99.99,,,-99.99,,2013-01-07 07:53:00,
2013-01-07 01:03:00,11.0,-99.9,-100.00,WSW,256,17.0,22.0,-999,-99.99,,,-99.99,,2013-01-07 08:03:00,
2013-01-07 01:12:00,11.0,-99.9,-100.00,WSW,256,17.0,22.0,-999,-99.99,,,-99.99,,2013-01-07 08:12:00,
2013-01-07 01:22:00,11.0,-99.9,-100.00,WSW,253,18.0,21.0,-999,-99.99,,,-99.99,,2013-01-07 08:22:00,
2013-01-07 01:33:00,12.0,-99.9,-100.00,WSW,256,17.0,21.0,-999,-99.99,,,-99.99,,2013-01-07 08:33:00,
2013-01-07 01:43:00,12.0,-99.9,-100.00,WSW,256,17.0,21.0,-999,-99.99,,,-99.99,,2013-01-07 08:43:00,
2013-01-07 01:53:00,11.0,-99.9,-100.00,WSW,253,16.0,19.0,-999,-99.99,,,-99.99,,2013-01-07 08:53:00,
2013-01-07 02:03:00,11.0,-99.9,-100.00,WSW,247,16.0,19.0,-999,-99.99,,,-99.99,,2013-01-07 09:03:00,
2013-01-07 02:12:00,11.0,-99.9,-100.00,WSW,247,16.0,19.0,-999,-99.99,,,-99.99,,2013-01-07 09:12:00,
2013-01-07 02:23:00,12.0,-99.9,-100.00,WSW,247,17.0,21.0,-999,-99.99,,,-99.99,,2013-01-07 09:23:00,
2013-01-07 02:33:00,13.0,-99.9,-100.00,WSW,252,16.0,21.0,-999,-99.99,,,-99.99,,2013-01-07 09:33:00,
2013-01-07 02:43:00,13.0,-99.9,-100.00,WSW,252,16.0,21.0,-999,-99.99,,,-99.99,,2013-01-07 09:43:00,
2013-01-07 02:53:00,12.0,-99.9,-100.00,WSW,250,16.0,21.0,-999,-99.99,,,-99.99,,2013-01-07 09:53:00,
2013-01-07 03:02:00,12.0,-99.9,-100.00,WSW,241,16.0,21.0,-999,-99.99,,,-99.99,,2013-01-07 10:02:00,
2013-01-07 03:12:00,12.0,-99.9,-100.00,WSW,241,16.0,21.0,-999,-99.99,,,-99.99,,2013-01-07 10:12:00,
2013-01-07 03:23:00,12.0,-99.9,-100.00,WSW,246,16.0,19.0,-999,-99.99,,,-99.99,,2013-01-07 10:23:00,
2013-01-07 03:33:00,13.0,-99.9,-100.00,WSW,250,18.0,24.0,-999,-99.99,,,-99.99,,2013-01-07 10:33:00,
2013-01-07 03:43:00,13.0,-99.9,-100.00,WSW,250,18.0,24.0,-999,-99.99,,,-99.99,,2013-01-07 10:43:00,
2013-01-07 03:53:00,13.0,-99.9,-100.00,WSW,258,17.0,21.0,-999,-99.99,,,-99.99,,2013-01-07 10:53:00,
2013-01-07 04:02:00,12.0,-99.9,-100.00,West,269,18.0,22.0,-999,-99.99,,,-99.99,,2013-01-07 11:02:00,
2013-01-07 04:12:00,12.0,-99.9,-100.00,West,269,18.0,22.0,-999,-99.99,,,-99.99,,2013-01-07 11:12:00,
2013-01-07 04:23:00,12.0,-99.9,-100.00,West,273,20.0,25.0,-999,-99.99,,,-99.99,,2013-01-07 11:23:00,
2013-01-07 04:33:00,12.0,-99.9,-100.00,West,272,21.0,26.0,-999,-99.99,,,-99.99,,2013-01-07 11:33:00,
2013-01-07 04:43:00,12.0,-99.9,-100.00,West,272,21.0,26.0,-999,-99.99,,,-99.99,,2013-01-07 11:43:00,
2013-01-07 04:53:00,11.0,-99.9,-100.00,West,277,18.0,22.0,-999,-99.99,,,-99.99,,2013-01-07 11:53:00,
2013-01-07 05:03:00,11.0,-99.9,-100.00,West,276,15.0,19.0,-999,-99.99,,,-99.99,,2013-01-07 12:03:00,
2013-01-07 05:13:00,11.0,-99.9,-100.00,West,276,15.0,19.0,-999,-99.99,,,-99.99,,2013-01-07 12:13:00,
2013-01-07 05:23:00,11.0,-99.9,-100.00,West,266,15.0,19.0,-999,-99.99,,,-99.99,,2013-01-07 12:23:00,
2013-01-07 05:33:00,11.0,-99.9,-100.00,West,274,14.0,18.0,-999,-99.99,,,-99.99,,2013-01-07 12:33:00,
2013-01-07 05:43:00,11.0,-99.9,-100.00,West,274,14.0,18.0,-999,-99.99,,,-99.99,,2013-01-07 12:43:00,
2013-01-07 05:53:00,11.0,-99.9,-100.00,West,278,16.0,22.0,-999,-99.99,,,-99.99,,2013-01-07 12:53:00,
2013-01-07 06:03:00,11.0,-99.9,-100.00,West,268,13.0,18.0,-999,-99.99,,,-99.99,,2013-01-07 13:03:00,
2013-01-07 06:12:00,11.0,-99.9,-100.00,West,268,13.0,18.0,-999,-99.99,,,-99.99,,2013-01-07 13:12:00,
2013-01-07 06:23:00,12.0,-99.9,-100.00,West,276,14.0,21.0,-999,-99.99,,,-99.99,,2013-01-07 13:23:00,
2013-01-07 06:33:00,12.0,-99.9,-100.00,WNW,285,15.0,21.0,-999,-99.99,,,-99.99,,2013-01-07 13:33:00,
2013-01-07 06:43:00,12.0,-99.9,-100.00,WNW,285,15.0,21.0,-999,-99.99,,,-99.99,,2013-01-07 13:43:00,
2013-01-07 06:53:00,11.0,-99.9,-100.00,WNW,292,13.0,19.0,-999,-99.99,,,-99.99,,2013-01-07 13:53:00,
2013-01-07 07:03:00,11.0,-99.9,-100.00,West,276,10.0,16.0,-999,-99.99,,,-99.99,,2013-01-07 14:03:00,
2013-01-07 07:13:00,11.0,-99.9,-100.00,West,276,10.0,16.0,-999,-99.99,,,-99.99,,2013-01-07 14:13:00,
2013-01-07 07:23:00,11.0,-99.9,-100.00,West,281,10.0,16.0,-999,-99.99,,,-99.99,,2013-01-07 14:23:00,
2013-01-07 07:33:00,11.0,-99.9,-100.00,WSW,252,11.0,15.0,-999,-99.99,,,-99.99,,2013-01-07 14:33:00,
2013-01-07 07:43:00,11.0,-99.9,-100.00,WSW,252,11.0,15.0,-999,-99.99,,,-99.99,,2013-01-07 14:43:00,
2013-01-07 07:53:00,11.0,-99.9,-100.00,West,274,9.0,14.0,-999,-99.99,,,-99.99,,2013-01-07 14:53:00,
2013-01-07 08:03:00,10.0,-99.9,-100.00,West,260,10.0,16.0,-999,-99.99,,,-99.99,,2013-01-07 15:03:00,
2013-01-07 08:12:00,10.0,-99.9,-100.00,West,260,10.0,16.0,-999,-99.99,,,-99.99,,2013-01-07 15:12:00,
2013-01-07 08:23:00,11.0,-99.9,-100.00,WSW,257,12.0,16.0,-999,-99.99,,,-99.99,,2013-01-07 15:23:00,
2013-01-07 08:33:00,11.0,-99.9,-100.00,WSW,249,12.0,18.0,-999,-99.99,,,-99.99,,2013-01-07 15:33:00,
2013-01-07 08:43:00,11.0,-99.9,-100.00,WSW,249,12.0,18.0,-999,-99.99,,,-99.99,,2013-01-07 15:43:00,
2013-01-07 08:53:00,11.0,-99.9,-100.00,West,268,14.0,18.0,-999,-99.99,,,-99.99,,2013-01-07 15:53:00,
2013-01-07 09:03:00,12.0,-99.9,-100.00,West,268,15.0,19.0,-999,-99.99,,,-99.99,,2013-01-07 16:03:00,
2013-01-07 09:12:00,12.0,-99.9,-100.00,West,269,15.0,19.0,-999,-99.99,,,-99.99,,2013-01-07 16:12:00,
2013-01-07 09:23:00,12.0,-99.9,-100.00,West,269,15.0,19.0,-999,-99.99,,,-99.99,,2013-01-07 16:23:00,
2013-01-07 09:33:00,12.0,-99.9,-100.00,West,269,15.0,19.0,-999,-99.99,,,-99.99,,2013-01-07 16:33:00,
2013-01-07 09:43:00,12.0,-99.9,-100.00,West,269,15.0,19.0,-999,-99.99,,,-99.99,,2013-01-07 16:43:00,
2013-01-07 09:53:00,11.0,-99.9,-100.00,West,276,14.0,18.0,-999,-99.99,,,-99.99,,2013-01-07 16:53:00,
2013-01-07 10:03:00,11.0,-99.9,-100.00,West,268,11.0,15.0,-999,-99.99,,,-99.99,,2013-01-07 17:03:00,
2013-01-07 10:12:00,11.0,-99.9,-100.00,West,268,11.0,15.0,-999,-99.99,,,-99.99,,2013-01-07 17:12:00,
2013-01-07 10:23:00,11.0,-99.9,-100.00,West,263,11.0,15.0,-999,-99.99,,,-99.99,,2013-01-07 17:23:00,
2013-01-07 10:33:00,12.0,-99.9,-100.00,West,259,14.0,21.0,-999,-99.99,,,-99.99,,2013-01-07 17:33:00,
2013-01-07 10:43:00,12.0,-99.9,-100.00,West,259,14.0,21.0,-999,-99.99,,,-99.99,,2013-01-07 17:43:00,
2013-01-07 10:53:00,12.0,-99.9,-100.00,WSW,253,16.0,26.0,-999,-99.99,,,-99.99,,2013-01-07 17:53:00,
2013-01-07 11:03:00,13.0,-99.9,-100.00,WSW,258,16.0,28.0,-999,-99.99,,,-99.99,,2013-01-07 18:03:00,
2013-01-07 11:13:00,13.0,-99.9,-100.00,WSW,258,16.0,28.0,-999,-99.99,,,-99.99,,2013-01-07 18:13:00,
2013-01-07 11:24:00,13.0,-99.9,-100.00,WSW,251,17.0,25.0,-999,-99.99,,,-99.99,,2013-01-07 18:24:00,
2013-01-07 11:33:00,14.0,-99.9,-100.00,WSW,256,16.0,25.0,-999,-99.99,,,-99.99,,2013-01-07 18:33:00,
2013-01-07 11:43:00,13.0,-99.9,-100.00,West,273,14.0,21.0,-999,-99.99,,,-99.99,,2013-01-07 18:43:00,
2013-01-07 11:53:00,13.0,-99.9,-100.00,West,273,14.0,21.0,-999,-99.99,,,-99.99,,2013-01-07 18:53:00,
2013-01-07 12:03:00,11.0,-99.9,-100.00,West,276,13.0,22.0,-999,-99.99,,,-99.99,,2013-01-07 19:03:00,
2013-01-07 12:12:00,11.0,-99.9,-100.00,West,276,13.0,22.0,-999,-99.99,,,-99.99,,2013-01-07 19:12:00,
2013-01-07 12:23:00,12.0,-99.9,-100.00,West,272,18.0,25.0,-999,-99.99,,,-99.99,,2013-01-07 19:23:00,
2013-01-07 12:33:00,11.0,-99.9,-100.00,West,274,18.0,24.0,-999,-99.99,,,-99.99,,2013-01-07 19:33:00,
2013-01-07 12:43:00,11.0,-99.9,-100.00,West,274,18.0,24.0,-999,-99.99,,,-99.99,,2013-01-07 19:43:00,
2013-01-07 12:53:00,11.0,-99.9,-100.00,West,271,18.0,28.0,-999,-99.99,,,-99.99,,2013-01-07 19:53:00,
2013-01-07 13:03:00,11.0,-99.9,-100.00,West,275,20.0,28.0,-999,-99.99,,,-99.99,,2013-01-07 20:03:00,
2013-01-07 13:13:00,11.0,-99.9,-100.00,West,275,20.0,28.0,-999,-99.99,,,-99.99,,2013-01-07 20:13:00,
2013-01-07 13:23:00,11.0,-99.9,-100.00,West,276,21.0,29.0,-999,-99.99,,,-99.99,,2013-01-07 20:23:00,
2013-01-07 13:33:00,11.0,-99.9,-100.00,West,276,21.0,29.0,-999,-99.99,,,-99.99,,2013-01-07 20:33:00,
2013-01-07 13:43:00,11.0,-99.9,-100.00,West,276,21.0,29.0,-999,-99.99,,,-99.99,,2013-01-07 20:43:00,
2013-01-07 13:53:00,12.0,-99.9,-100.00,West,278,15.0,21.0,-999,-99.99,,,-99.99,,2013-01-07 20:53:00,
2013-01-07 14:03:00,11.0,-99.9,-100.00,West,278,15.0,25.0,-999,-99.99,,,-99.99,,2013-01-07 21:03:00,
2013-01-07 14:12:00,11.0,-99.9,-100.00,West,278,15.0,25.0,-999,-99.99,,,-99.99,,2013-01-07 21:12:00,
2013-01-07 14:23:00,11.0,-99.9,-100.00,West,272,17.0,25.0,-999,-99.99,,,-99.99,,2013-01-07 21:23:00,
2013-01-07 14:33:00,11.0,-99.9,-100.00,West,270,18.0,28.0,-999,-99.99,,,-99.99,,2013-01-07 21:33:00,
2013-01-07 14:43:00,11.0,-99.9,-100.00,West,270,18.0,28.0,-999,-99.99,,,-99.99,,2013-01-07 21:43:00,
2013-01-07 14:53:00,11.0,-99.9,-100.00,West,270,20.0,28.0,-999,-99.99,,,-99.99,,2013-01-07 21:53:00,
2013-01-07 15:03:00,12.0,-99.9,-100.00,West,274,17.0,25.0,-999,-99.99,,,-99.99,,2013-01-07 22:03:00,
2013-01-07 15:12:00,12.0,-99.9,-100.00,West,274,17.0,25.0,-999,-99.99,,,-99.99,,2013-01-07 22:12:00,
2013-01-07 15:23:00,11.0,-99.9,-100.00,West,272,19.0,31.0,-999,-99.99,,,-99.99,,2013-01-07 22:23:00,
2013-01-07 15:33:00,11.0,-99.9,-100.00,West,272,19.0,31.0,-999,-99.99,,,-99.99,,2013-01-07 22:33:00,
2013-01-07 15:43:00,11.0,-99.9,-100.00,West,272,19.0,31.0,-999,-99.99,,,-99.99,,2013-01-07 22:43:00,
2013-01-07 15:53:00,11.0,-99.9,-100.00,West,269,22.0,39.0,-999,-99.99,,,-99.99,,2013-01-07 22:53:00,
2013-01-07 16:03:00,11.0,-99.9,-100.00,West,267,22.0,36.0,-999,-99.99,,,-99.99,,2013-01-07 23:03:00,
2013-01-07 16:12:00,11.0,-99.9,-100.00,West,267,22.0,36.0,-999,-99.99,,,-99.99,,2013-01-07 23:12:00,
2013-01-07 16:23:00,11.0,-99.9,-100.00,West,266,25.0,39.0,-999,-99.99,,,-99.99,,2013-01-07 23:23:00,
2013-01-07 16:33:00,11.0,-99.9,-100.00,West,264,22.0,33.0,-999,-99.99,,,-99.99,,2013-01-07 23:33:00,
2013-01-07 16:43:00,11.0,-99.9,-100.00,West,264,22.0,33.0,-999,-99.99,,,-99.99,,2013-01-07 23:43:00,
2013-01-07 16:53:00,11.0,-99.9,-100.00,West,267,25.0,38.0,-999,-99.99,,,-99.99,,2013-01-07 23:53:00,
2013-01-07 17:03:00,11.0,-99.9,-100.00,West,271,28.0,42.0,-999,-99.99,,,-99.99,,2013-01-08 00:03:00,
2013-01-07 17:13:00,11.0,-99.9,-100.00,West,271,28.0,42.0,-999,-99.99,,,-99.99,,2013-01-08 00:13:00,
2013-01-07 17:23:00,11.0,-99.9,-100.00,West,278,25.0,42.0,-999,-99.99,,,-99.99,,2013-01-08 00:23:00,
2013-01-07 17:33:00,11.0,-99.9,-100.00,West,275,29.0,45.0,-999,-99.99,,,-99.99,,2013-01-08 00:33:00,
2013-01-07 17:43:00,11.0,-99.9,-100.00,West,275,29.0,45.0,-999,-99.99,,,-99.99,,2013-01-08 00:43:00,
2013-01-07 17:53:00,11.0,-99.9,-100.00,West,276,32.0,43.0,-999,-99.99,,,-99.99,,2013-01-08 00:53:00,
2013-01-07 18:03:00,10.0,-99.9,-100.00,West,277,32.0,43.0,-999,-99.99,,,-99.99,,2013-01-08 01:03:00,
2013-01-07 18:12:00,10.0,-99.9,-100.00,West,277,32.0,43.0,-999,-99.99,,,-99.99,,2013-01-08 01:12:00,
2013-01-07 18:23:00,10.0,-99.9,-100.00,West,277,33.0,50.0,-999,-99.99,,,-99.99,,2013-01-08 01:23:00,
2013-01-07 18:33:00,10.0,-99.9,-100.00,West,275,36.0,49.0,-999,-99.99,,,-99.99,,2013-01-08 01:33:00,
2013-01-07 18:43:00,10.0,-99.9,-100.00,West,275,36.0,49.0,-999,-99.99,,,-99.99,,2013-01-08 01:43:00,
2013-01-07 18:53:00,10.0,-99.9,-100.00,West,280,30.0,43.0,-999,-99.99,,,-99.99,,2013-01-08 01:53:00,
2013-01-07 19:03:00,10.0,-99.9,-100.00,WNW,296,23.0,33.0,-999,-99.99,,,-99.99,,2013-01-08 02:03:00,
2013-01-07 19:12:00,10.0,-99.9,-100.00,WNW,296,23.0,33.0,-999,-99.99,,,-99.99,,2013-01-08 02:12:00,
2013-01-07 19:23:00,10.0,-99.9,-100.00,WNW,283,29.0,42.0,-999,-99.99,,,-99.99,,2013-01-08 02:23:00,
2013-01-07 19:33:00,10.0,-99.9,-100.00,WNW,282,26.0,38.0,-999,-99.99,,,-99.99,,2013-01-08 02:33:00,
2013-01-07 19:43:00,10.0,-99.9,-100.00,WNW,282,26.0,38.0,-999,-99.99,,,-99.99,,2013-01-08 02:43:00,
2013-01-07 19:53:00,10.0,-99.9,-100.00,West,270,25.0,35.0,-999,-99.99,,,-99.99,,2013-01-08 02:53:00,
2013-01-07 20:03:00,10.0,-99.9,-100.00,West,275,21.0,29.0,-999,-99.99,,,-99.99,,2013-01-08 03:03:00,
2013-01-07 20:12:00,10.0,-99.9,-100.00,West,275,21.0,29.0,-999,-99.99,,,-99.99,,2013-01-08 03:12:00,
2013-01-07 20:22:00,9.0,-99.9,-100.00,WNW,282,23.0,29.0,-999,-99.99,,,-99.99,,2013-01-08 03:22:00,
2013-01-07 20:33:00,9.0,-99.9,-100.00,WNW,289,23.0,31.0,-999,-99.99,,,-99.99,,2013-01-08 03:33:00,
2013-01-07 20:43:00,9.0,-99.9,-100.00,WNW,289,23.0,31.0,-999,-99.99,,,-99.99,,2013-01-08 03:43:00,
2013-01-07 20:53:00,9.0,-99.9,-100.00,WNW,283,25.0,35.0,-999,-99.99,,,-99.99,,2013-01-08 03:53:00,
2013-01-07 21:02:00,9.0,-99.9,-100.00,WNW,282,20.0,31.0,-999,-99.99,,,-99.99,,2013-01-08 04:02:00,
2013-01-07 21:12:00,9.0,-99.9,-100.00,WNW,282,20.0,31.0,-999,-99.99,,,-99.99,,2013-01-08 04:12:00,
2013-01-07 21:22:00,9.0,-99.9,-100.00,West,274,21.0,33.0,-999,-99.99,,,-99.99,,2013-01-08 04:22:00,
2013-01-07 21:33:00,9.0,-99.9,-100.00,West,263,23.0,32.0,-999,-99.99,,,-99.99,,2013-01-08 04:33:00,
2013-01-07 21:43:00,9.0,-99.9,-100.00,West,263,23.0,32.0,-999,-99.99,,,-99.99,,2013-01-08 04:43:00,
2013-01-07 21:52:00,9.0,-99.9,-100.00,West,268,17.0,22.0,-999,-99.99,,,-99.99,,2013-01-08 04:52:00,
2013-01-07 22:04:00,9.0,-99.9,-100.00,West,281,15.0,25.0,-999,-99.99,,,-99.99,,2013-01-08 05:04:00,
2013-01-07 22:12:00,9.0,-99.9,-100.00,West,281,15.0,25.0,-999,-99.99,,,-99.99,,2013-01-08 05:12:00,
2013-01-07 22:22:00,9.0,-99.9,-100.00,NW,310,10.0,18.0,-999,-99.99,,,-99.99,,2013-01-08 05:22:00,
2013-01-07 22:33:00,9.0,-99.9,-100.00,WNW,282,16.0,24.0,-999,-99.99,,,-99.99,,2013-01-08 05:33:00,
2013-01-07 22:43:00,9.0,-99.9,-100.00,WNW,282,16.0,24.0,-999,-99.99,,,-99.99,,2013-01-08 05:43:00,
2013-01-07 22:53:00,9.0,-99.9,-100.00,West,265,15.0,22.0,-999,-99.99,,,-99.99,,2013-01-08 05:53:00,
2013-01-07 23:03:00,10.0,-99.9,-100.00,West,273,18.0,26.0,-999,-99.99,,,-99.99,,2013-01-08 06:03:00,
2013-01-07 23:12:00,10.0,-99.9,-100.00,West,273,18.0,26.0,-999,-99.99,,,-99.99,,2013-01-08 06:12:00,
2013-01-07 23:23:00,9.0,-99.9,-100.00,West,281,21.0,28.0,-999,-99.99,,,-99.99,,2013-01-08 06:23:00,
2013-01-07 23:33:00,9.0,-99.9,-100.00,West,275,23.0,35.0,-999,-99.99,,,-99.99,,2013-01-08 06:33:00,
2013-01-07 23:43:00,9.0,-99.9,-100.00,West,275,23.0,35.0,-999,-99.99,,,-99.99,,2013-01-08 06:43:00,
2013-01-07 23:53:00,10.0,-99.9,-100.00,WNW,294,21.0,29.0,-999,-99.99,,,-99.99,,2013-01-08 06:53:00,